Theta_e
307 307 306 306 308 308 308 307 307 306 305 304 303 298 295 294 293 292 291 289 288 288 287 286 285 285 285 285 285 284 285 285 285 284 285 285 285 285 285 285 285 285 286 286
304 306 305 303 304 305 305 305 304 304 303 298 295 294 294 294 293 291 289 288 287 287 286 285 285 284 284 284 284 284 284 284 284 284 284 284 284 284 284 284 284 285 285 286
308 300 300 306 305 304 302 300 301 302 301 295 297 296 294 293 291 289 288 287 286 285 285 284 284 284 284 284 284 283 283 284 283 283 283 283 284 284 285 285 285 285 285 286
307 302 309 302 298 300 301 300 300 299 298 296 294 293 292 291 289 288 287 286 285 284 284 284 283 284 284 284 283 282 282 282 282 282 282 282 284 284 285 286 286 286 287 288
309 304 306 304 297 299 300 301 298 298 296 294 293 291 294 289 288 287 286 284 284 283 283 283 282 282 282 283 283 282 281 281 281 281 281 282 283 284 285 285 286 287 288 289
300 305 309 301 296 294 295 300 294 294 295 296 292 295 295 288 287 286 284 283 283 283 283 282 282 282 283 282 281 281 281 281 281 281 281 282 284 285 286 286 287 288 289 290
304 304 303 299 294 294 300 301 293 294 295 292 291 291 288 286 285 284 283 282 282 283 283 282 282 281 282 281 281 280 280 280 282 283 283 284 286 287 287 287 288 289 290 291
300 302 303 294 294 299 297 293 294 292 290 289 288 287 286 285 283 283 283 283 283 283 283 283 282 281 281 281 281 280 280 280 281 282 284 286 286 287 288 288 289 289 290 290
302 303 295 294 294 292 293 293 290 289 288 287 286 285 284 283 283 283 282 282 281 281 282 282 282 281 280 281 281 280 280 280 281 283 284 286 286 287 288 288 289 289 289 290
299 300 296 293 292 291 291 290 289 288 287 285 284 283 283 282 282 281 281 281 281 280 281 282 282 282 281 281 280 280 280 281 281 282 283 286 287 288 287 288 289 289 289 290
299 299 291 291 290 290 289 288 287 286 285 284 283 282 282 282 281 281 281 280 280 280 280 280 281 281 281 281 279 279 279 280 281 281 282 285 286 287 288 289 289 289 290 290
304 294 293 290 289 288 288 287 286 285 284 283 282 282 281 281 281 280 279 279 280 280 280 280 280 281 280 280 278 277 278 279 279 280 282 284 286 288 289 289 289 290 291 291
293 291 290 289 288 287 286 286 285 284 283 282 282 281 281 281 280 279 280 279 279 279 279 279 280 280 280 279 277 277 278 278 279 280 282 283 284 284 287 290 290 290 291 291
291 290 288 287 286 286 286 285 284 283 282 281 281 281 280 280 280 279 279 279 279 279 279 279 279 280 279 278 278 278 278 278 279 280 280 281 282 285 286 288 288 290 291 291
288 288 288 287 286 285 285 283 282 282 282 281 281 280 280 280 279 279 279 279 279 279 279 279 279 279 278 278 278 278 278 278 279 280 281 283 284 286 287 288 289 289 291 291
287 287 286 286 285 284 283 282 282 282 281 281 280 280 279 279 279 278 278 278 278 279 279 279 277 278 278 278 278 278 278 278 279 281 283 285 286 287 288 288 289 289 290 291
286 285 285 285 284 283 282 282 281 281 280 280 280 279 279 279 278 278 278 278 278 278 279 277 278 278 277 278 278 278 278 279 281 283 284 285 286 287 288 288 289 290 290 291
286 286 285 284 283 282 281 281 280 280 280 280 279 279 278 278 277 278 278 278 278 279 278 278 278 277 278 278 278 278 279 280 281 282 284 286 287 287 288 289 289 290 290 291
284 284 283 283 282 282 281 280 280 279 279 279 279 278 278 277 277 278 278 278 278 278 278 279 277 278 278 277 277 278 279 280 282 283 284 286 287 288 288 289 289 290 290 291
283 283 282 282 281 280 280 280 279 279 279 279 278 278 278 277 277 278 278 278 277 277 277 277 278 278 277 277 278 279 279 280 281 283 285 286 287 288 289 289 289 290 290 290
282 282 281 281 280 280 280 279 279 279 279 278 278 277 277 277 277 277 277 278 277 278 277 277 278 277 277 278 279 279 279 280 281 283 285 287 288 288 289 289 289 290 290 290
282 281 280 280 279 279 279 279 279 278 278 278 277 277 277 277 278 278 277 276 277 278 276 277 277 276 277 279 279 279 279 280 281 282 285 286 287 288 288 289 289 289 289 290
280 280 279 279 279 279 279 278 278 278 278 277 277 277 277 277 276 277 278 277 277 276 277 278 277 276 278 279 279 278 279 280 280 282 284 286 286 287 287 288 288 289 289 289
280 279 279 279 279 278 278 278 278 277 277 277 277 277 277 277 277 277 277 277 277 277 277 277 277 277 278 278 279 279 279 279 280 281 283 285 286 286 286 287 287 288 288 288
279 279 279 278 278 277 278 278 277 277 277 277 277 276 276 276 276 276 276 277 277 277 277 277 278 277 278 278 278 279 279 279 279 281 282 283 284 285 285 285 286 287 287 288
279 278 278 278 277 277 277 277 277 277 277 276 276 276 276 275 275 275 275 275 276 276 277 277 277 277 277 277 278 278 279 279 280 280 281 282 283 284 284 284 285 286 286 287
278 278 278 277 277 277 277 277 277 277 276 276 275 275 275 275 275 275 276 276 276 275 275 276 277 277 277 277 277 278 278 279 279 280 280 281 282 283 283 284 285 285 285 286
Wind_Speed
13 13 9 14 20 17 17 21 11 16 16 17 15 9 4 5 9 13 13 13 19 23 23 24 24 25 27 29 31 31 31 31 28 27 27 27 26 26 26 26 26 26 26 26
4 14 10 13 22 17 17 20 21 23 24 6 1 3 6 9 12 13 11 17 22 23 24 24 25 27 29 31 32 32 31 30 28 27 26 26 26 27 27 27 25 25 25 25
4 1 8 13 12 16 7 7 6 8 4 2 4 7 8 13 14 9 14 21 23 24 23 24 25 27 30 31 32 32 31 29 27 26 26 27 28 29 29 27 27 27 25 23
3 2 5 3 2 1 9 9 12 11 6 5 5 10 14 12 5 12 20 22 22 23 25 24 26 28 31 32 32 30 29 27 25 26 28 29 30 30 29 28 27 28 26 24
4 4 10 6 4 5 5 6 4 7 4 3 6 12 12 4 9 19 20 21 22 23 24 24 24 26 29 31 31 31 29 28 28 27 28 29 29 29 28 28 26 26 25 25
2 4 6 3 4 4 2 8 8 5 4 5 8 8 7 7 21 21 21 21 24 27 27 25 24 27 30 30 31 29 31 32 30 28 28 29 29 29 27 25 27 27 27 27
9 6 9 1 8 5 4 5 9 6 4 6 5 8 14 18 19 18 21 23 24 26 26 25 25 26 29 29 30 32 34 32 31 28 28 28 28 26 26 26 25 27 28 27
4 5 9 11 7 6 2 4 4 3 3 6 8 13 15 16 18 21 24 26 26 27 28 29 29 28 29 30 32 34 33 33 31 29 28 28 26 26 26 25 25 28 28 27
9 5 3 17 3 6 3 2 3 3 5 8 11 12 15 17 20 23 24 26 25 26 28 29 29 28 30 32 34 34 34 33 32 30 27 25 26 26 27 24 25 29 29 29
2 5 7 8 13 8 6 5 4 5 7 9 11 13 17 19 21 24 25 27 26 26 29 31 31 31 30 33 33 33 35 35 33 30 29 25 24 25 26 24 26 28 31 33
5 14 3 7 8 7 5 3 4 7 9 10 12 14 18 21 22 24 26 25 27 27 28 30 31 32 31 32 32 34 35 36 34 31 30 30 26 25 25 23 24 30 32 28
7 3 1 4 8 6 4 3 5 7 10 12 13 15 19 22 23 24 23 26 27 28 29 31 32 33 32 31 31 33 37 35 32 31 31 30 29 29 20 23 23 25 20 19
2 6 4 6 6 5 3 3 6 9 10 12 14 17 19 22 23 23 24 25 27 29 29 30 32 32 32 31 31 32 35 33 32 30 30 29 29 29 32 28 23 22 17 14
6 6 5 7 4 4 3 4 6 8 10 13 15 17 19 21 22 23 24 25 27 29 29 30 31 31 31 32 33 36 34 30 29 29 29 29 28 28 27 26 27 26 15 10
8 6 5 6 6 4 4 4 6 8 12 14 16 18 19 21 23 24 24 26 27 28 28 29 30 31 32 35 37 36 31 31 29 30 30 28 27 24 22 20 20 21 13 5
9 7 7 5 4 3 3 5 8 10 14 16 16 17 19 21 22 23 24 25 27 29 29 29 29 32 35 38 38 34 34 31 30 31 29 26 23 21 18 18 17 16 9 4
12 8 7 6 4 3 3 7 9 11 13 15 17 18 19 21 23 23 24 24 24 25 26 27 32 33 37 36 37 37 36 36 30 27 25 24 22 18 17 16 15 12 6 5
7 5 5 4 3 2 5 8 9 9 12 15 17 18 19 20 23 24 25 26 25 24 24 28 31 34 34 39 37 37 34 30 28 26 24 21 18 16 15 14 13 7 4 6
6 5 4 2 2 5 6 7 8 10 13 15 17 17 17 18 21 22 23 24 25 27 28 30 33 33 37 39 35 34 29 27 25 23 21 18 16 14 13 12 9 4 4 7
6 4 1 3 5 5 5 7 9 10 13 15 15 16 16 17 20 21 21 22 23 25 27 30 32 35 40 39 37 29 26 24 24 21 19 18 16 14 12 10 5 2 5 8
3 1 3 4 4 5 6 8 10 11 12 12 14 15 16 18 19 20 21 22 23 24 27 29 31 37 37 38 32 27 24 23 22 22 21 17 15 12 11 8 3 2 6 9
3 3 2 2 3 5 7 9 10 11 11 11 12 14 16 17 19 18 19 22 23 23 26 26 31 33 34 36 31 27 24 23 23 23 19 16 14 12 11 6 3 2 6 10
2 2 2 2 4 6 7 8 10 10 9 11 13 14 16 17 18 21 22 21 23 23 23 24 26 30 32 35 33 28 25 24 26 23 19 16 14 12 11 7 3 2 7 12
2 2 3 3 4 5 5 7 9 9 10 12 13 15 17 17 15 17 18 19 20 20 21 21 23 27 31 34 35 32 29 26 27 24 20 16 13 11 10 8 4 3 8 13
3 3 4 4 4 5 5 6 7 7 8 10 12 13 14 16 17 18 19 18 18 19 20 19 20 23 28 32 34 34 33 30 28 26 24 19 16 14 11 10 7 5 9 13
3 3 3 4 4 4 5 6 7 7 8 9 9 11 12 14 14 15 16 17 17 18 19 20 21 21 23 27 30 32 34 34 33 30 29 24 20 17 14 12 10 9 10 10
4 4 3 4 4 5 6 6 6 6 7 8 8 11 12 13 14 14 15 16 17 18 19 19 19 20 20 21 24 28 31 33 34 34 33 31 26 23 20 17 15 13 11 11
Wind_Direction
253 273 267 266 271 271 246 242 247 270 288 292 309 311 296 298 305 312 317 323 327 326 324 324 323 323 322 322 323 323 321 320 316 314 314 312 310 309 307 306 303 299 295 290
252 261 278 272 267 262 250 254 256 267 277 335 84 260 281 295 309 313 318 324 325 323 323 324 324 323 323 324 323 323 321 320 316 315 313 311 311 309 306 305 303 300 294 290
253 61 309 271 275 234 217 231 224 240 303 151 279 286 291 307 313 314 324 326 323 322 322 321 322 322 322 323 323 322 321 320 317 314 311 311 312 311 310 307 308 303 297 292
284 307 247 35 57 2 222 263 227 256 261 276 285 295 299 302 302 323 324 322 320 320 320 321 322 324 323 326 326 320 320 317 316 313 311 313 314 314 312 312 310 309 306 301
261 231 306 248 189 188 200 272 225 240 237 248 295 303 295 297 320 321 319 318 317 318 318 320 322 323 323 325 326 323 321 317 317 315 312 313 314 315 316 314 312 311 307 303
160 252 276 74 141 117 134 272 171 185 188 298 319 296 334 312 313 316 319 321 321 324 323 324 326 327 326 326 326 322 321 319 318 317 313 314 316 318 317 313 311 311 308 305
228 254 277 144 147 145 260 344 158 174 278 282 263 287 301 309 313 317 321 323 325 326 326 326 328 327 326 326 325 323 322 321 320 319 316 318 319 321 319 316 313 316 314 313
193 228 267 150 137 220 69 126 168 235 272 270 281 298 307 313 317 324 326 327 328 328 331 332 332 330 328 326 326 325 324 322 321 320 320 322 322 324 323 318 317 321 322 319
204 226 85 193 250 200 219 221 247 273 278 292 300 307 312 316 323 325 327 327 327 327 329 332 333 332 328 328 328 326 326 325 324 322 322 323 325 325 325 321 320 325 322 319
191 204 230 219 230 245 248 240 256 278 298 306 308 314 315 319 325 327 330 328 327 327 330 330 333 334 332 329 328 326 325 329 328 324 324 324 325 326 326 324 322 321 319 317
249 270 223 229 218 224 223 234 283 308 311 312 315 318 320 323 326 327 328 329 326 326 328 327 330 333 336 332 329 327 329 332 331 328 328 327 326 326 324 327 324 316 314 307
260 156 135 125 180 194 210 255 295 310 313 317 319 322 323 324 326 328 328 326 327 329 330 330 330 332 337 334 330 329 329 331 328 324 326 327 327 326 329 328 327 322 315 306
162 163 147 152 170 192 219 274 304 310 310 315 322 324 326 324 326 327 330 330 328 329 330 329 331 333 336 335 331 327 328 328 323 324 328 330 329 325 325 328 334 336 332 320
170 161 147 171 192 202 249 291 306 309 317 321 323 325 325 325 328 331 333 331 331 333 333 334 332 333 338 336 332 335 327 323 325 330 329 322 319 321 322 325 332 336 343 333
173 187 185 171 182 219 270 298 306 313 319 324 329 332 331 331 332 334 336 335 335 336 337 335 335 338 340 341 340 330 328 328 329 327 319 320 320 322 324 326 333 332 339 335
166 162 162 179 205 237 278 303 312 322 327 330 332 333 333 332 333 335 337 339 339 340 340 339 340 341 345 345 336 337 336 330 323 322 325 325 327 327 328 328 335 330 329 259
164 176 188 203 213 244 299 311 320 326 329 331 332 332 332 334 335 337 338 343 343 343 345 344 342 348 346 340 346 341 334 324 330 329 330 329 329 329 331 331 333 322 308 250
200 197 185 186 207 279 311 314 321 328 331 331 329 334 336 336 336 339 340 344 344 348 352 348 351 344 343 349 346 331 329 333 334 334 334 334 335 335 333 333 330 311 282 210
167 173 167 199 277 308 321 321 326 333 333 332 333 337 338 336 336 341 341 346 346 349 352 356 349 347 354 349 336 337 339 339 340 341 340 340 341 341 338 338 321 292 230 202
170 176 198 294 308 315 319 324 331 339 335 332 334 336 340 341 340 344 347 350 351 346 355 354 349 357 353 342 345 344 347 349 349 349 353 349 346 344 344 342 312 264 212 197
182 216 286 298 309 313 322 329 338 340 336 335 338 343 345 345 345 347 350 351 354 353 358 354 358 2 348 348 350 355 357 359 1 4 0 359 358 357 356 345 335 239 201 187
232 275 295 298 301 316 327 332 337 336 336 343 344 345 348 349 346 352 355 352 355 358 354 355 6 356 356 357 2 4 6 9 15 10 7 10 10 12 2 358 356 209 191 180
236 251 261 287 313 321 325 333 333 335 342 348 350 351 352 354 350 349 352 356 357 0 355 360 5 4 6 8 12 13 16 20 23 18 15 18 17 23 18 17 25 155 178 175
209 234 261 293 310 318 330 328 328 338 347 350 348 347 348 353 0 353 353 355 355 0 0 3 9 14 14 17 20 22 25 27 29 28 25 27 26 30 38 34 55 130 167 171
214 241 268 293 312 319 328 333 337 340 343 344 347 348 352 354 355 357 358 357 359 1 5 7 11 16 19 23 25 29 33 36 38 39 35 33 34 37 48 53 63 111 154 164
227 244 266 291 299 310 326 337 339 342 350 356 354 1 2 2 359 0 1 2 3 6 8 10 16 17 20 24 27 32 37 39 42 47 48 43 45 46 52 64 73 97 130 145
244 255 273 290 298 314 326 336 338 341 346 357 7 9 11 10 8 9 9 10 12 13 14 13 17 20 21 22 26 32 37 41 45 48 53 51 51 55 59 65 77 90 102 116